Погода в Ахтырке

Украина / Сумская область     50°18′12″N   34°53′33″E
темп.,
°C
ветер,
м/с
пор.,
м/с
влажн.,
%
обл.,
%
осадки,
мм/ч
давл.,
гПа
погр.,
м
27 ноября, сб
сб2723:00+1ююв5149499 0.0 1013331
02:00+1юв61594100 0.0 1010401
05:00+2юв81892100 0.0 1008534
08:00+4ююв81793100 1.2 1005669
11:00+5ююв91892100 3.3 1003872
14:00+7ю71496100 3.8 1003630
17:00+7ю51195100 0.0 1003362
20:00+7ю3995100 0.0 1003230
28 ноября, вс
вс2823:00+7ююз499488 0.0 1004251
02:00+5ююз37966 0.0 1005137
05:00+4ююз34965 0.0 100660
08:00+4ю349611 0.0 100762
11:00+7ю359182 0.0 1008267
14:00+9юв25785 0.0 1007250
17:00+7юв4788100 0.0 1007108
20:00+7юв41190100 0.0 1006204
29 ноября, пн
пн2923:00+7юв41096100 1.3 1005244
02:00+8вюв51198100 4.6 1001459
05:00+9ю41098100 0.1 1000355
08:00+9ю51197100 0.2 999420
11:00+10ю61288100 0.0 998671
14:00+10ююв71492100 0.4 994775
17:00+11ю61396100 1.4 990632
20:00+11ююз71594100 6.4 987828
30 ноября, вт
вт3023:00+10зюз8148998 1.5 986836
02:00+4з101574100 6.0 994901
05:00+3з91463100 0.0 9961153
08:00+2зюз7117357 0.0 999897
11:00+3юз8126540 0.0 10001081
14:00+4зюз8136110 0.0 10001135
17:00+2з61169100 0.0 1000594
20:00+1з41075100 0.0 1001471
1 декабря, ср
ср123:000зсз41178100 0.0 999580
02:00−1зсз3982100 0.0 1001435
05:00−2зсз4108188 0.0 1002460
08:00−3з410805 0.0 1003451
11:00+1зюз696682 0.0 1004791
14:000юз51088100 0.1 1003736
17:000юз499681 0.6 1004540
20:00−1з4895100 0.6 1005365